This is the latest recevied weather packets stored in our database for station/object K4MUW-4. If no packets are shown the sender has not sent any weather packets the latest 10 day(s).
| Time | Temp. | Humidity | Pressure | Rain* | Wind** | Luminosity | Snow |
|---|---|---|---|---|---|---|---|
| 1787945371 | 31.67° C | 37% | 1013 hPa | 0 mm | 0 m/s | - | - |
| 1787945070 | 31.67° C | 37% | 1013 hPa | 0 mm | 1.79 m/s, 356° | - | - |
| 1787944770 | 31.67° C | 36% | 1013 hPa | 0 mm | 0 m/s | - | - |
| 1787944470 | 31.67° C | 36% | 1013 hPa | 0 mm | 1.34 m/s, 0° | - | - |
| 1787944169 | 31.67° C | 34% | 1013 hPa | 0 mm | 1.34 m/s, 1° | - | - |
| 1787943869 | 32.22° C | 36% | 1013 hPa | 0 mm | 1.34 m/s, 0° | - | - |
| 1787943569 | 32.22° C | 37% | 1013 hPa | 0 mm | 1.34 m/s, 0° | - | - |
| 1787943268 | 31.67° C | 37% | 1013 hPa | 0 mm | 0 m/s | - | - |
| 1787942965 | 31.67° C | 37% | 1013 hPa | 0 mm | 0 m/s | - | - |
| 1787942665 | 31.67° C | 37% | 1014 hPa | 0 mm | 0 m/s | - | - |
| 1787942364 | 31.67° C | 36% | 1014 hPa | 0 mm | 0 m/s | - | - |
| 1787942064 | 31.67° C | 37% | 1014 hPa | 0 mm | 1.34 m/s, 332° | - | - |
| 1787941874 | 31.67° C | 37% | 1014 hPa | 0 mm | 1.79 m/s, 339° | - | - |
| 1787941764 | 31.67° C | 37% | 1014 hPa | 0 mm | 1.79 m/s, 339° | - | - |
| 1787941463 | 31.11° C | 38% | 1014 hPa | 0 mm | 1.79 m/s, 22° | - | - |
| 1787941163 | 31.11° C | 38% | 1014 hPa | 0 mm | 1.34 m/s, 225° | - | - |
| 1787940863 | 31.11° C | 37% | 1014 hPa | 0 mm | 1.34 m/s, 325° | - | - |
| 1787940562 | 31.11° C | 38% | 1014 hPa | 0 mm | 0 m/s | - | - |
| 1787940257 | 31.11° C | 38% | 1014 hPa | 0 mm | 0 m/s | - | - |
| 1787939948 | 31.11° C | 40% | 1014 hPa | 0 mm | 1.34 m/s, 241° | - | - |
| 1787939647 | 31.11° C | 39% | 1014 hPa | 0 mm | 0 m/s | - | - |
| 1787939347 | 31.11° C | 38% | 1014 hPa | 0 mm | 1.79 m/s, 294° | - | - |
| 1787939047 | 31.11° C | 40% | 1014 hPa | 0 mm | 0 m/s | - | - |
| 1787938746 | 31.11° C | 40% | 1014 hPa | 0 mm | 0 m/s | - | - |
| 1787938446 | 31.11° C | 39% | 1014 hPa | 0 mm | 2.24 m/s, 298° | - | - |
* Rain latest hour (hover to see other rain measurements)
** Current wind speed in m/s (hover to see current wind gust speed)